[[{"header":{"parameterUnit":"m.s-1","parameterCategory":1,"la1":30.2991,"la2":30.254,"lo1":-89.0895,"lo2":-89.0444,"dy":0.0017,"dx":0.0017,"nx":28,"ny":28,"refTime":"2026-02-16T09:00:00:Z","depth":0,"parameterNumber":2,"parameterNumberName":"U-component_of_WINDS"},"data":[0,0,0,0,0,0,0,0,0,0,0,0,0,0,0,0,0,0,0,0,0,0,0,0,0,0,0,0,0,0,0,0,0,0,0,0,0,0,0,0,0,0,0,0,0,0,0,0,0,0,0,0,0,0,0,0,0,0,-1.0459,-1.0459,0,-1.048,-1.048,-1.048,-1.0463,-1.0462,-1.0462,-1.0461,-1.0487,-1.0489,-1.049,0,0,0,0,0,0,0,0,0,0,0,0,0,-1.0408,-1.0409,-1.0459,-1.0459,-1.0459,-1.048,-1.048,-1.048,-1.0463,-1.0462,-1.0461,-1.0461,-1.0487,-1.0488,-1.049,0,0,0,0,0,0,0,0,0,0,0,0,0,-1.0429,-1.0409,-1.0459,-1.0453,-1.0453,-1.048,-1.048,-1.048,-1.0463,-1.0462,-1.0461,-1.046,-1.0486,-1.0488,-1.049,-1.0525,0,0,-1.0497,-1.0498,0,0,0,0,0,0,0,0,-1.0428,-1.0431,-1.0454,-1.0454,-1.0453,-1.0467,-1.0471,-1.0496,-1.0464,-1.046,-1.0461,-1.046,-1.0482,-1.0484,-1.0491,-1.0527,-1.0528,-1.0497,-1.0498,-1.0499,-1.05,0,0,0,0,0,0,0,-1.0427,-1.043,-1.0467,-1.0454,-1.0454,-1.0451,-1.0453,-1.0476,-1.0477,-1.046,-1.0459,-1.0461,-1.0482,-1.0489,-1.0491,-1.0528,-1.0497,-1.0499,-1.05,-1.0501,-1.0592,-1.0593,0,0,0,0,0,0,-1.0425,-1.0429,-1.0467,-1.0468,-1.0438,-1.0452,-1.0455,-1.0464,-1.0476,-1.0477,-1.0462,-1.046,-1.0486,-1.0489,-1.0492,-1.0533,-1.0499,-1.0501,-1.0502,-1.0591,-1.0593,-1.0594,0,0,0,0,0,0,-1.0424,-1.0429,-1.0466,-1.0448,-1.0453,-1.0454,-1.0465,-1.0465,-1.0472,-1.0478,-1.0479,-1.0469,-1.0485,-1.0489,-1.0517,-1.0534,-1.0502,-1.0504,-1.059,-1.0592,-1.0593,-1.0616,0,0,0,0,0,0,-1.0423,-1.0428,-1.0441,-1.0448,-1.0453,-1.0489,-1.0466,-1.0466,-1.0475,-1.0473,-1.0485,-1.0486,-1.0485,-1.0514,-1.0519,-1.0536,-1.0505,-1.0588,-1.0591,-1.0593,-1.0614,-1.0618,-1.0622,0,0,0,0,0,-1.0421,-1.0448,-1.0442,-1.0446,-1.0469,-1.049,-1.0493,-1.049,-1.0477,-1.049,-1.0493,-1.0485,-1.0531,-1.0516,-1.0522,-1.0541,-1.0587,-1.059,-1.0593,-1.0612,-1.0618,-1.0622,0,0,0,0,0,0,-1.0445,-1.0449,-1.0442,-1.0472,-1.048,-1.0487,-1.0504,-1.0496,-1.051,-1.0507,-1.0504,-1.0507,-1.0535,-1.0541,-1.0524,-1.0574,-1.0557,-1.0561,-1.057,-1.0575,-1.058,-1.0578,-1.0507,0,0,0,0,0,-1.0453,-1.0468,-1.0472,-1.0498,-1.0502,-1.0502,-1.0511,-1.0507,-1.0517,-1.0521,-1.0526,-1.0537,-1.0553,-1.0565,-1.058,-1.0614,-1.0616,-1.0629,-1.0634,-1.0637,-1.0641,-1.0659,-1.0664,-1.0603,-1.0603,-1.0603,0,0,-1.0472,-1.0476,-1.0486,-1.0503,-1.0509,-1.0525,-1.0505,-1.0524,-1.0537,-1.0524,-1.055,-1.0554,-1.0565,-1.0596,-1.061,-1.0601,-1.0658,-1.0641,-1.0643,-1.0645,-1.0662,-1.0668,-1.0673,-1.0604,-1.0604,-1.0604,0,0,-1.0513,-1.0518,-1.0539,-1.0545,-1.0554,-1.0553,-1.0558,-1.0565,-1.0567,-1.0592,-1.0582,-1.0598,-1.0627,-1.0635,-1.0643,-1.0685,-1.0678,-1.0691,-1.0714,-1.0731,-1.0736,-1.074,-1.0755,-1.076,-1.0694,-1.0694,-1.0694,0,-1.0536,-1.0559,-1.0552,-1.0571,-1.0579,-1.0565,-1.0588,-1.0594,-1.0608,-1.0614,-1.0604,-1.0639,-1.0646,-1.0677,-1.0687,-1.0694,-1.0701,-1.069,-1.0735,-1.0739,-1.0743,-1.0758,-1.0763,-1.0696,-1.0695,-1.0695,-1.0695,0,-1.0586,-1.0602,-1.0619,-1.063,-1.0639,-1.066,-1.0657,-1.0668,-1.0663,-1.0664,-1.0689,-1.0696,-1.0713,-1.072,-1.0716,-1.0751,-1.0745,-1.0735,-1.0718,-1.0751,-1.0764,-1.077,-1.0698,-1.0697,-1.0697,-1.0696,0,0,-1.0645,-1.065,-1.0657,-1.0661,-1.0669,-1.0682,-1.0702,-1.0715,-1.0725,-1.0734,-1.0751,-1.0775,-1.0764,-1.0774,-1.0771,-1.0786,-1.0818,-1.0773,-1.0774,-1.0782,-1.0857,-1.0865,-1.0871,-1.0813,-1.0814,-1.0815,-1.0856,0,-1.0687,-1.072,-1.0714,-1.0746,-1.0761,-1.0748,-1.0765,-1.0772,-1.0772,-1.0786,-1.0787,-1.0804,-1.0789,-1.0794,-1.0808,-1.0811,-1.0833,-1.0808,-1.083,-1.0831,-1.0828,-1.0878,-1.0887,-1.0925,-1.0861,-1.0862,-1.0862,0,-1.0741,-1.075,-1.0784,-1.0787,-1.0793,-1.0809,-1.082,-1.0833,-1.084,-1.084,-1.0848,-1.0842,-1.0862,-1.0844,-1.0872,-1.0855,-1.0863,-1.0866,-1.0867,-1.087,-1.0849,-1.0883,-1.0937,-1.0943,-1.0871,-1.087,-1.0869,0,-1.0781,-1.0802,-1.0824,-1.0829,-1.0833,-1.0844,-1.0847,-1.0853,-1.0861,-1.0872,-1.0877,-1.089,-1.0898,-1.0909,-1.0906,-1.0893,-1.0935,-1.0917,-1.0936,-1.0936,-1.0947,-1.0947,-1.1004,-1.0951,-1.0951,-1.0951,-1.0951,0,-1.0829,-1.0851,-1.0842,-1.0856,-1.0879,-1.0871,-1.0895,-1.0896,-1.0901,-1.0916,-1.0905,-1.0919,-1.0915,-1.0929,-1.0927,-1.0951,-1.0954,-1.0955,-1.0955,-1.0956,-1.0956,-1.0963,-1.096,-1.0952,-1.0952,-1.0952,-1.0952,0,-1.0879,-1.0874,-1.0897,-1.0899,-1.09,-1.0917,-1.0918,-1.0932,-1.093,-1.0949,-1.0953,-1.0951,-1.0967,-1.0965,-1.0984,-1.0982,-1.1012,-1.1008,-1.1009,-1.1008,-1.1028,-1.1026,-1.1093,-1.1101,-1.1042,-1.1042,-1.1043,0,-1.0911,-1.0926,-1.0928,-1.0936,-1.0939,-1.0952,-1.096,-1.0952,-1.0961,-1.0969,-1.0982,-1.0996,-1.1007,-1.1033,-1.1035,-1.1048,-1.1045,-1.1067,-1.1047,-1.1048,-1.1046,-1.1045,-1.1047,-1.1072,-1.1072,-1.1073,-1.1073,0,-1.0967,-1.0963,-1.0974,-1.0983,-1.0992,-1.0999,-1.1006,-1.1013,-1.1006,-1.1017,-1.1031,-1.104,-1.1057,-1.1071,-1.1084,-1.1088,-1.108,-1.1079,-1.1084,-1.1087,-1.1087,-1.1087,-1.102,-1.1078,-1.1078,-1.1077,-1.1077,-1.1077,-1.1009,-1.1022,-1.1024,-1.1036,-1.104,-1.1046,-1.1058,-1.1057,-1.1068,-1.108,-1.1075,-1.1092,-1.1098,-1.1113,-1.1118,-1.1132,-1.1124,-1.1132,-1.1134,-1.1137,-1.1139,-1.1084,-1.1134,-1.1134,-1.1134,-1.1134,-1.1134,0,-1.1065,-1.1066,-1.1076,-1.1084,-1.1094,-1.1082,-1.1089,-1.1098,-1.1112,-1.1117,-1.1127,-1.1144,-1.1157,-1.1159,-1.1172,-1.1182,-1.1179,-1.1186,-1.1186,-1.1187,-1.1145,-1.1139,-1.1188,-1.1188,-1.1188,-1.1188,-1.1188,-1.1188,-1.1096,-1.1116,-1.1112,-1.1134,-1.1135,-1.115,-1.1154,-1.116,-1.1164,-1.1182,-1.1192,-1.1192,-1.1196,-1.1208,-1.122,-1.122,-1.1226,-1.1235,-1.1234,-1.1195,-1.119,-1.1185,-1.1179,-1.1236,-1.1236,-1.1274,-1.1274,-1.1275]},{"header":{"parameterUnit":"m.s-1","parameterCategory":1,"la1":30.2991,"la2":30.254,"lo1":-89.0895,"lo2":-89.0444,"dy":0.0017,"dx":0.0017,"nx":28,"ny":28,"refTime":"2026-02-16T09:00:00:Z","depth":0,"parameterNumber":3,"parameterNumberName":"V-component_of_WINDS"},"data":[0,0,0,0,0,0,0,0,0,0,0,0,0,0,0,0,0,0,0,0,0,0,0,0,0,0,0,0,0,0,0,0,0,0,0,0,0,0,0,0,0,0,0,0,0,0,0,0,0,0,0,0,0,0,0,0,0,0,0.3687,0.3689,0,0.3869,0.3871,0.3873,0.395,0.3949,0.3949,0.3948,0.4145,0.415,0.4156,0,0,0,0,0,0,0,0,0,0,0,0,0,0.3413,0.3417,0.3687,0.3689,0.3691,0.3869,0.3871,0.3874,0.395,0.3949,0.3949,0.3948,0.4143,0.415,0.4156,0,0,0,0,0,0,0,0,0,0,0,0,0,0.3557,0.3419,0.3686,0.375,0.3758,0.3868,0.3871,0.3875,0.395,0.3949,0.3949,0.3948,0.4141,0.4149,0.4157,0.4221,0,0,0.4183,0.4187,0,0,0,0,0,0,0,0,0.3549,0.3567,0.3739,0.3746,0.3755,0.3886,0.3847,0.3991,0.395,0.3877,0.3948,0.3948,0.406,0.4075,0.4111,0.423,0.4238,0.4184,0.4189,0.4192,0.4195,0,0,0,0,0,0,0,0.3539,0.356,0.3759,0.3741,0.3751,0.3773,0.3793,0.3875,0.397,0.3884,0.3889,0.3909,0.4064,0.4102,0.4116,0.4241,0.4183,0.4191,0.4196,0.4199,0.4422,0.4423,0,0,0,0,0,0,0.3517,0.3551,0.3754,0.3765,0.3648,0.3778,0.38,0.3845,0.3969,0.3987,0.391,0.3912,0.4088,0.4106,0.4123,0.4206,0.4192,0.42,0.4205,0.4421,0.4423,0.4423,0,0,0,0,0,0,0.3511,0.3534,0.3746,0.366,0.3688,0.3783,0.3832,0.3848,0.3887,0.3989,0.4007,0.3931,0.4089,0.4111,0.4195,0.4214,0.4204,0.4212,0.442,0.4422,0.4423,0.4372,0,0,0,0,0,0,0.3503,0.3532,0.3555,0.3659,0.3692,0.3813,0.3834,0.3852,0.39,0.3905,0.4013,0.4031,0.409,0.4182,0.4204,0.4225,0.4218,0.4419,0.4421,0.4423,0.4373,0.4371,0.437,0,0,0,0,0,0.3493,0.3536,0.3556,0.358,0.3723,0.3814,0.3833,0.3897,0.3901,0.3926,0.3992,0.4028,0.4208,0.419,0.4215,0.4239,0.4418,0.4421,0.4422,0.4373,0.4372,0.437,0,0,0,0,0,0,0.3435,0.3551,0.3574,0.3652,0.3721,0.3826,0.3861,0.3894,0.3967,0.3969,0.4048,0.4072,0.415,0.4203,0.4182,0.4307,0.4316,0.4323,0.427,0.427,0.4269,0.4255,0.4225,0,0,0,0,0,0.343,0.3491,0.359,0.3649,0.3683,0.3765,0.3807,0.385,0.3927,0.3958,0.403,0.4106,0.418,0.4228,0.4301,0.438,0.4405,0.4409,0.4407,0.4406,0.4412,0.4458,0.4461,0.443,0.443,0.443,0,0,0.3424,0.3494,0.3529,0.3639,0.3699,0.3763,0.379,0.3857,0.3906,0.397,0.4053,0.4108,0.4198,0.4279,0.4319,0.4326,0.4426,0.4409,0.4407,0.4414,0.4461,0.4463,0.4466,0.4431,0.4431,0.4431,0,0,0.3444,0.3502,0.3558,0.3615,0.3703,0.3758,0.377,0.387,0.3908,0.3991,0.404,0.4101,0.4226,0.4289,0.4337,0.4377,0.4413,0.4399,0.4395,0.4439,0.4441,0.4444,0.446,0.4464,0.4404,0.4404,0.4404,0,0.3426,0.3521,0.3583,0.3646,0.3694,0.375,0.3808,0.3863,0.3972,0.4005,0.401,0.4167,0.4233,0.4329,0.4339,0.4375,0.4395,0.4389,0.4435,0.4439,0.4442,0.4458,0.4464,0.4402,0.4402,0.4402,0.4403,0,0.3494,0.3559,0.3594,0.3693,0.3745,0.3805,0.3879,0.3924,0.3962,0.4016,0.4101,0.418,0.427,0.4296,0.4335,0.4399,0.44,0.4419,0.443,0.4442,0.4458,0.4465,0.4399,0.44,0.44,0.4401,0,0,0.3487,0.3616,0.3628,0.3674,0.3774,0.3827,0.389,0.3975,0.4013,0.4086,0.4143,0.4246,0.4263,0.4318,0.4364,0.4402,0.443,0.4417,0.442,0.4418,0.4507,0.4493,0.4499,0.4453,0.4455,0.4456,0.4499,0,0.3521,0.3634,0.369,0.378,0.3842,0.3895,0.395,0.4019,0.407,0.4133,0.4191,0.4263,0.428,0.4313,0.4353,0.4418,0.4449,0.4416,0.451,0.4513,0.4487,0.4507,0.4494,0.4531,0.4506,0.4507,0.4508,0,0.3578,0.3646,0.374,0.3831,0.3859,0.3908,0.399,0.4047,0.4127,0.4162,0.422,0.4265,0.4336,0.4339,0.4439,0.4415,0.4457,0.4494,0.4497,0.4511,0.4513,0.4523,0.4544,0.4551,0.4519,0.4518,0.4517,0,0.3565,0.368,0.3751,0.3788,0.3896,0.3929,0.3976,0.4054,0.4101,0.4174,0.4205,0.4286,0.4331,0.4393,0.4459,0.4455,0.4554,0.4562,0.4587,0.4585,0.4608,0.4606,0.4638,0.4631,0.4631,0.4631,0.463,0,0.3599,0.3655,0.3746,0.379,0.3855,0.392,0.3983,0.4035,0.4103,0.416,0.4211,0.4265,0.4347,0.4411,0.4463,0.4539,0.4559,0.4591,0.4605,0.4588,0.4584,0.4618,0.4618,0.4632,0.4632,0.4631,0.4631,0,0.3597,0.3659,0.374,0.3834,0.3859,0.3903,0.3985,0.4031,0.4083,0.4155,0.4175,0.4259,0.4337,0.4408,0.4512,0.4547,0.4625,0.4641,0.4597,0.4605,0.4627,0.4624,0.4684,0.4696,0.4678,0.4678,0.4678,0,0.3616,0.3659,0.3756,0.3796,0.3841,0.3905,0.3952,0.4018,0.4065,0.4157,0.4193,0.4273,0.4341,0.4463,0.4536,0.4616,0.4636,0.4651,0.4649,0.463,0.4638,0.4635,0.4641,0.4651,0.4651,0.4651,0.465,0,0.3643,0.3671,0.3735,0.3809,0.3863,0.3925,0.399,0.4021,0.4099,0.415,0.4228,0.428,0.4384,0.4465,0.4552,0.4604,0.4642,0.465,0.466,0.4645,0.4618,0.4634,0.4597,0.4649,0.4649,0.4649,0.4649,0.465,0.3654,0.3695,0.3769,0.3838,0.3892,0.3951,0.3998,0.4055,0.412,0.4207,0.4243,0.4322,0.4401,0.4521,0.4572,0.4637,0.4645,0.466,0.4664,0.4667,0.4665,0.4605,0.4654,0.4654,0.4654,0.4654,0.4654,0,0.3686,0.3735,0.3797,0.3884,0.3939,0.3963,0.4036,0.4081,0.4149,0.4217,0.4281,0.4371,0.4448,0.4525,0.4607,0.4644,0.4664,0.4664,0.4663,0.4675,0.4652,0.4636,0.4647,0.4647,0.4647,0.4647,0.4647,0.4647,0.3709,0.3779,0.3816,0.3914,0.3964,0.4039,0.4079,0.4134,0.4188,0.4284,0.4347,0.4395,0.4467,0.4554,0.4627,0.4648,0.4677,0.4673,0.4698,0.4677,0.4677,0.4676,0.4661,0.4678,0.4678,0.4716,0.4716,0.4716]}]]